Time,TemperatureF,DewpointF,PressureIn,WindDirection,WindDirectionDegrees,WindSpeedMPH,WindSpeedGustMPH,Humidity,HourlyPrecipIn,Conditions,Clouds,dailyrainin,SolarRadiationWatts/m^2,SoftwareType,DateUTC
2013-04-04 00:02:00,48.0,48.0,-100.00,NE,44,6.0,11.0,100,0.00,,,1.21,0.000000,,2013-04-04 05:02:00,
2013-04-04 00:32:00,48.0,48.0,-100.00,NE,38,4.0,9.0,100,0.00,,,1.21,0.000000,,2013-04-04 05:32:00,
2013-04-04 00:42:00,48.0,48.0,-100.00,NE,38,4.0,9.0,100,0.00,,,1.21,0.000000,,2013-04-04 05:42:00,
2013-04-04 00:53:00,48.0,48.0,-100.00,NE,38,4.0,9.0,100,0.00,,,1.21,0.000000,,2013-04-04 05:53:00,
2013-04-04 01:02:00,48.0,48.0,-100.00,NE,38,4.0,9.0,100,0.00,,,1.21,0.000000,,2013-04-04 06:02:00,
2013-04-04 01:33:00,48.0,48.0,-100.00,NNE,19,4.0,7.0,100,0.00,,,1.21,0.000000,,2013-04-04 06:33:00,
2013-04-04 01:43:00,48.0,48.0,-100.00,NNE,19,4.0,7.0,100,0.00,,,1.21,0.000000,,2013-04-04 06:43:00,
2013-04-04 01:53:00,48.0,48.0,-100.00,NNE,19,4.0,7.0,100,0.00,,,1.21,0.000000,,2013-04-04 06:53:00,
2013-04-04 02:02:00,48.0,48.0,-100.00,NNE,19,4.0,7.0,100,0.00,,,1.21,0.000000,,2013-04-04 07:02:00,
2013-04-04 02:32:00,48.0,48.0,-100.00,NNW,343,5.0,11.0,100,0.00,,,1.21,0.000000,,2013-04-04 07:32:00,
2013-04-04 02:43:00,48.0,48.0,-100.00,NNW,343,5.0,11.0,100,0.00,,,1.21,0.000000,,2013-04-04 07:43:00,
2013-04-04 02:53:00,48.0,48.0,-100.00,NNW,343,5.0,11.0,100,0.00,,,1.21,0.000000,,2013-04-04 07:53:00,
2013-04-04 03:02:00,48.0,48.0,-100.00,NNW,343,5.0,11.0,100,0.00,,,1.21,0.000000,,2013-04-04 08:02:00,
2013-04-04 03:32:00,49.0,49.0,-100.00,NNW,346,5.0,8.0,100,0.00,,,1.21,0.000000,,2013-04-04 08:32:00,
2013-04-04 03:43:00,49.0,49.0,-100.00,NNW,346,5.0,8.0,100,0.00,,,1.21,0.000000,,2013-04-04 08:43:00,
2013-04-04 03:52:00,49.0,49.0,-100.00,NNW,346,5.0,8.0,100,0.00,,,1.21,0.000000,,2013-04-04 08:52:00,
2013-04-04 04:02:00,49.0,49.0,-100.00,NNW,346,5.0,8.0,100,0.00,,,1.21,0.000000,,2013-04-04 09:02:00,
2013-04-04 04:34:00,49.0,49.0,-100.00,North,356,5.0,8.0,100,0.00,,,1.17,0.000000,,2013-04-04 09:34:00,
2013-04-04 04:54:00,49.0,49.0,-100.00,North,356,5.0,8.0,100,0.00,,,1.17,0.000000,,2013-04-04 09:54:00,
2013-04-04 05:04:00,49.0,49.0,-100.00,North,356,5.0,8.0,100,0.00,,,1.17,0.000000,,2013-04-04 10:04:00,
2013-04-04 05:34:00,49.0,49.0,-100.00,NNW,335,0.0,7.0,100,0.00,,,0.95,0.000000,,2013-04-04 10:34:00,
2013-04-04 05:43:00,49.0,49.0,-100.00,NNW,335,0.0,7.0,100,0.00,,,0.95,0.000000,,2013-04-04 10:43:00,
2013-04-04 05:54:00,49.0,49.0,-100.00,NNW,335,0.0,7.0,100,0.00,,,0.95,0.000000,,2013-04-04 10:54:00,
2013-04-04 06:02:00,49.0,49.0,-100.00,NNW,335,0.0,7.0,100,0.00,,,0.95,0.000000,,2013-04-04 11:02:00,
2013-04-04 06:33:00,49.0,49.0,-100.00,NW,318,0.0,0.0,100,0.00,,,0.76,0.000000,,2013-04-04 11:33:00,
2013-04-04 06:43:00,49.0,49.0,-100.00,NW,318,0.0,0.0,100,0.00,,,0.76,0.000000,,2013-04-04 11:43:00,
2013-04-04 06:54:00,49.0,49.0,-100.00,NW,318,0.0,0.0,100,0.00,,,0.76,0.000000,,2013-04-04 11:54:00,
2013-04-04 07:02:00,49.0,49.0,-100.00,NW,318,0.0,0.0,100,0.00,,,0.76,0.000000,,2013-04-04 12:02:00,
2013-04-04 07:33:00,49.0,49.0,-100.00,NW,307,0.0,0.0,100,0.00,,,0.58,1.000000,,2013-04-04 12:33:00,
2013-04-04 07:44:00,49.0,49.0,-100.00,NW,307,0.0,0.0,100,0.00,,,0.58,1.000000,,2013-04-04 12:44:00,
2013-04-04 07:52:00,49.0,49.0,-100.00,NW,307,0.0,0.0,100,0.00,,,0.58,1.000000,,2013-04-04 12:52:00,
2013-04-04 08:02:00,49.0,49.0,-100.00,NW,307,0.0,0.0,100,0.00,,,0.58,1.000000,,2013-04-04 13:02:00,
2013-04-04 08:33:00,49.0,49.0,-100.00,WNW,299,0.0,0.0,100,0.00,,,0.43,15.000000,,2013-04-04 13:33:00,
2013-04-04 08:43:00,49.0,49.0,-100.00,WNW,299,0.0,0.0,100,0.00,,,0.43,15.000000,,2013-04-04 13:43:00,
2013-04-04 08:53:00,49.0,49.0,-100.00,WNW,299,0.0,0.0,100,0.00,,,0.43,15.000000,,2013-04-04 13:53:00,
2013-04-04 09:03:00,49.0,49.0,-100.00,WNW,299,0.0,0.0,100,0.00,,,0.43,15.000000,,2013-04-04 14:03:00,
2013-04-04 09:33:00,50.0,50.0,-100.00,NW,317,0.0,0.0,100,0.00,,,0.06,80.000000,,2013-04-04 14:33:00,
2013-04-04 09:43:00,50.0,50.0,-100.00,NW,317,0.0,0.0,100,0.00,,,0.06,80.000000,,2013-04-04 14:43:00,
2013-04-04 09:53:00,50.0,50.0,-100.00,NW,317,0.0,0.0,100,0.00,,,0.06,80.000000,,2013-04-04 14:53:00,
2013-04-04 10:02:00,50.0,50.0,-100.00,NW,317,0.0,0.0,100,0.00,,,0.06,80.000000,,2013-04-04 15:02:00,
2013-04-04 10:34:00,51.0,51.0,-100.00,WNW,293,0.0,0.0,100,0.01,,,0.04,118.000000,,2013-04-04 15:34:00,
2013-04-04 10:43:00,51.0,51.0,-100.00,WNW,293,0.0,0.0,100,0.01,,,0.04,118.000000,,2013-04-04 15:43:00,
2013-04-04 10:54:00,51.0,51.0,-100.00,WNW,293,0.0,0.0,100,0.01,,,0.04,118.000000,,2013-04-04 15:54:00,
2013-04-04 11:03:00,51.0,51.0,-100.00,WNW,293,0.0,0.0,100,0.01,,,0.04,118.000000,,2013-04-04 16:03:00,
2013-04-04 11:33:00,52.0,52.0,-100.00,WNW,292,0.0,0.0,99,0.00,,,0.04,203.000000,,2013-04-04 16:33:00,
2013-04-04 11:43:00,52.0,52.0,-100.00,WNW,292,0.0,0.0,99,0.00,,,0.04,203.000000,,2013-04-04 16:43:00,
2013-04-04 11:54:00,52.0,52.0,-100.00,WNW,292,0.0,0.0,99,0.00,,,0.04,203.000000,,2013-04-04 16:54:00,
2013-04-04 12:03:00,52.0,52.0,-100.00,WNW,292,0.0,0.0,99,0.00,,,0.04,203.000000,,2013-04-04 17:03:00,
2013-04-04 12:33:00,52.0,51.0,-100.00,WNW,289,0.0,0.0,96,0.00,,,0.04,221.000000,,2013-04-04 17:33:00,
2013-04-04 12:43:00,52.0,51.0,-100.00,WNW,289,0.0,0.0,96,0.00,,,0.04,221.000000,,2013-04-04 17:43:00,
2013-04-04 12:53:00,52.0,51.0,-100.00,WNW,289,0.0,0.0,96,0.00,,,0.04,221.000000,,2013-04-04 17:53:00,
2013-04-04 13:02:00,52.0,51.0,-100.00,WNW,289,0.0,0.0,96,0.00,,,0.04,221.000000,,2013-04-04 18:02:00,
2013-04-04 13:33:00,53.0,51.0,-100.00,WNW,301,0.0,0.0,92,0.00,,,0.04,272.000000,,2013-04-04 18:33:00,
2013-04-04 13:43:00,53.0,51.0,-100.00,WNW,301,0.0,0.0,92,0.00,,,0.04,272.000000,,2013-04-04 18:43:00,
2013-04-04 13:52:00,53.0,51.0,-100.00,WNW,301,0.0,0.0,92,0.00,,,0.04,272.000000,,2013-04-04 18:52:00,
2013-04-04 14:02:00,53.0,51.0,-100.00,WNW,301,0.0,0.0,92,0.00,,,0.04,272.000000,,2013-04-04 19:02:00,
2013-04-04 14:33:00,52.0,49.0,-100.00,WNW,292,0.0,0.0,91,0.00,,,0.04,177.000000,,2013-04-04 19:33:00,
2013-04-04 14:43:00,52.0,49.0,-100.00,WNW,292,0.0,0.0,91,0.00,,,0.04,177.000000,,2013-04-04 19:43:00,
2013-04-04 14:52:00,52.0,49.0,-100.00,WNW,292,0.0,0.0,91,0.00,,,0.04,177.000000,,2013-04-04 19:52:00,
2013-04-04 15:03:00,52.0,49.0,-100.00,WNW,292,0.0,0.0,91,0.00,,,0.04,177.000000,,2013-04-04 20:03:00,
2013-04-04 15:33:00,51.0,48.0,-100.00,WNW,289,0.0,0.0,90,0.00,,,0.04,123.000000,,2013-04-04 20:33:00,
2013-04-04 15:42:00,51.0,48.0,-100.00,WNW,289,0.0,0.0,90,0.00,,,0.04,123.000000,,2013-04-04 20:42:00,
2013-04-04 15:53:00,51.0,48.0,-100.00,WNW,289,0.0,0.0,90,0.00,,,0.04,123.000000,,2013-04-04 20:53:00,
2013-04-04 16:02:00,51.0,48.0,-100.00,WNW,289,0.0,0.0,90,0.00,,,0.04,123.000000,,2013-04-04 21:02:00,
2013-04-04 16:33:00,51.0,48.0,-100.00,NW,306,0.0,0.0,90,0.00,,,0.04,108.000000,,2013-04-04 21:33:00,
2013-04-04 16:43:00,51.0,48.0,-100.00,NW,306,0.0,0.0,90,0.00,,,0.04,108.000000,,2013-04-04 21:43:00,
2013-04-04 16:53:00,51.0,48.0,-100.00,NW,306,0.0,0.0,90,0.00,,,0.04,108.000000,,2013-04-04 21:53:00,
2013-04-04 17:03:00,51.0,48.0,-100.00,NW,306,0.0,0.0,90,0.00,,,0.04,108.000000,,2013-04-04 22:03:00,
2013-04-04 17:33:00,50.0,48.0,-100.00,WNW,300,0.0,0.0,92,0.00,,,0.04,73.000000,,2013-04-04 22:33:00,
2013-04-04 17:43:00,50.0,48.0,-100.00,WNW,300,0.0,0.0,92,0.00,,,0.04,73.000000,,2013-04-04 22:43:00,
2013-04-04 17:53:00,50.0,48.0,-100.00,WNW,300,0.0,0.0,92,0.00,,,0.04,73.000000,,2013-04-04 22:53:00,
2013-04-04 18:03:00,50.0,48.0,-100.00,WNW,300,0.0,0.0,92,0.00,,,0.04,73.000000,,2013-04-04 23:03:00,
2013-04-04 18:32:00,49.0,48.0,-100.00,NW,307,0.0,0.0,98,0.00,,,0.04,33.000000,,2013-04-04 23:32:00,
2013-04-04 18:42:00,49.0,48.0,-100.00,NW,307,0.0,0.0,98,0.00,,,0.04,33.000000,,2013-04-04 23:42:00,
2013-04-04 18:52:00,49.0,48.0,-100.00,NW,307,0.0,0.0,98,0.00,,,0.04,33.000000,,2013-04-04 23:52:00,
2013-04-04 19:02:00,49.0,48.0,-100.00,NW,307,0.0,0.0,98,0.00,,,0.04,33.000000,,2013-04-05 00:02:00,
2013-04-04 19:33:00,48.0,47.0,-100.00,NW,317,0.0,0.0,98,0.00,,,0.04,18.000000,,2013-04-05 00:33:00,
2013-04-04 19:43:00,48.0,47.0,-100.00,NW,317,0.0,0.0,98,0.00,,,0.04,18.000000,,2013-04-05 00:43:00,
2013-04-04 19:52:00,48.0,47.0,-100.00,NW,317,0.0,0.0,98,0.00,,,0.04,18.000000,,2013-04-05 00:52:00,
2013-04-04 20:02:00,48.0,47.0,-100.00,NW,317,0.0,0.0,98,0.00,,,0.04,18.000000,,2013-04-05 01:02:00,
2013-04-04 20:32:00,48.0,48.0,-100.00,NW,309,0.0,0.0,100,0.00,,,-99.99,1.000000,,2013-04-05 01:32:00,
2013-04-04 20:42:00,48.0,48.0,-100.00,NW,309,0.0,0.0,100,0.00,,,-99.99,1.000000,,2013-04-05 01:42:00,
2013-04-04 20:53:00,48.0,48.0,-100.00,NW,309,0.0,0.0,100,0.00,,,-99.99,1.000000,,2013-04-05 01:53:00,
2013-04-04 21:03:00,48.0,48.0,-100.00,NW,309,0.0,0.0,100,0.00,,,-99.99,1.000000,,2013-04-05 02:03:00,
2013-04-04 21:32:00,47.0,47.0,-100.00,NW,317,0.0,0.0,100,0.00,,,0.01,0.000000,,2013-04-05 02:32:00,
2013-04-04 21:42:00,47.0,47.0,-100.00,NW,317,0.0,0.0,100,0.00,,,0.01,0.000000,,2013-04-05 02:42:00,
2013-04-04 21:52:00,47.0,47.0,-100.00,NW,317,0.0,0.0,100,0.00,,,0.01,0.000000,,2013-04-05 02:52:00,
2013-04-04 22:02:00,47.0,47.0,-100.00,NW,317,0.0,0.0,100,0.00,,,0.01,0.000000,,2013-04-05 03:02:00,
2013-04-04 22:33:00,47.0,47.0,-100.00,NW,316,0.0,0.0,99,0.00,,,0.01,0.000000,,2013-04-05 03:33:00,
2013-04-04 22:43:00,47.0,47.0,-100.00,NW,316,0.0,0.0,99,0.00,,,0.01,0.000000,,2013-04-05 03:43:00,
2013-04-04 22:54:00,47.0,47.0,-100.00,NW,316,0.0,0.0,99,0.00,,,0.01,0.000000,,2013-04-05 03:54:00,
2013-04-04 23:02:00,47.0,47.0,-100.00,NW,316,0.0,0.0,99,0.00,,,0.01,0.000000,,2013-04-05 04:02:00,
2013-04-04 23:33:00,46.0,45.0,-100.00,NW,306,0.0,0.0,98,0.00,,,0.01,0.000000,,2013-04-05 04:33:00,
2013-04-04 23:42:00,46.0,45.0,-100.00,NW,306,0.0,0.0,98,0.00,,,0.01,0.000000,,2013-04-05 04:42:00,
2013-04-04 23:52:00,46.0,45.0,-100.00,NW,306,0.0,0.0,98,0.00,,,0.01,0.000000,,2013-04-05 04:52:00,